Probability
0 0 1 2 1 0 0 1 0 0 0 0 1 0 0 0 0 0 0 0 0 0 0 0 0 0 0 0 0 0 0 0 0 0 0 0 0 0
0 0 1 1 1 0 0 1 0 0 0 1 1 1 0 0 0 0 0 0 0 0 0 0 0 0 0 0 0 0 0 0 0 0 0 0 0 0
0 0 0 0 0 0 0 0 0 0 0 1 1 1 0 0 0 0 0 0 0 0 0 0 0 0 0 0 0 0 0 0 0 0 0 0 0 0
0 0 0 0 0 0 0 0 0 0 0 0 0 1 1 0 0 0 0 0 0 0 0 0 0 0 0 0 0 0 0 0 0 0 0 0 0 0
0 0 0 0 0 0 0 0 0 0 0 0 0 0 0 0 0 0 0 0 0 0 0 0 0 0 0 0 0 0 0 0 0 0 0 0 0 0
0 0 0 0 0 0 0 0 0 0 0 0 0 0 0 0 0 0 0 0 0 0 0 0 0 0 0 0 0 0 0 0 0 0 0 0 0 0
0 0 0 0 0 0 0 0 0 0 0 0 0 0 0 0 0 0 0 0 0 0 0 0 0 0 1 1 0 0 0 0 0 0 0 0 0 0
0 0 0 0 0 0 0 0 0 0 0 0 0 0 0 0 0 0 0 0 0 0 0 0 0 0 1 1 0 0 0 0 0 0 0 0 0 0
0 0 0 0 0 0 0 0 0 0 0 0 0 0 0 0 0 0 0 0 0 0 0 0 0 0 1 1 0 0 0 0 0 0 0 0 0 0
0 0 0 0 0 0 0 0 0 0 0 0 0 0 0 0 0 0 0 0 0 0 0 0 0 0 0 0 0 0 0 0 0 0 0 0 0 0
0 0 0 0 0 0 0 0 0 0 0 0 0 0 0 0 0 0 0 0 0 0 0 0 0 0 0 0 0 0 0 0 0 0 0 0 0 0
0 0 0 0 0 0 0 0 0 0 0 0 0 0 0 0 0 0 0 0 0 0 0 0 0 0 0 0 0 0 0 0 0 0 0 0 0 0
0 0 0 0 0 0 0 0 0 0 0 0 0 0 0 0 0 0 0 0 0 0 0 0 0 0 0 0 0 0 0 0 0 0 0 0 0 0
0 0 0 0 0 0 0 0 0 0 0 0 0 0 0 0 0 0 0 0 0 0 0 0 0 0 0 0 0 0 0 0 0 0 0 0 0 0
0 0 0 0 0 0 0 0 0 0 0 0 0 0 0 0 0 0 0 0 0 0 0 0 0 0 0 0 0 0 0 0 0 0 0 0 0 0
0 0 0 0 0 0 0 0 0 0 0 0 0 0 0 0 0 0 0 0 0 0 0 0 0 1 1 0 0 0 0 0 0 0 0 0 0 0
0 0 0 0 0 0 0 0 0 0 0 0 0 0 0 0 0 0 0 0 0 0 0 0 1 2 1 0 0 0 0 0 0 0 0 0 0 0
0 0 0 0 0 0 0 0 0 0 0 0 0 0 0 0 0 0 0 0 0 0 0 0 1 1 1 0 0 0 0 0 0 0 0 0 0 0
0 0 0 0 0 0 0 0 0 0 0 0 0 0 0 0 0 0 1 1 0 0 0 0 0 0 0 0 0 0 0 0 0 0 0 0 0 0
0 0 0 0 0 0 0 0 0 0 0 0 0 0 0 0 1 1 2 1 0 0 0 0 0 0 0 0 0 0 0 0 0 0 0 0 1 1
0 0 0 0 0 0 0 0 0 0 0 0 0 1 1 1 2 2 2 1 0 0 0 0 0 0 0 0 0 0 0 0 0 0 0 0 1 2
0 0 0 0 0 0 0 0 0 0 0 0 0 1 2 2 2 1 1 0 0 0 0 0 0 0 0 0 0 0 0 0 0 0 0 0 1 1
0 0 0 0 0 0 0 0 0 0 0 0 0 1 2 3 2 1 0 0 0 0 0 0 0 0 0 0 0 0 0 0 0 0 0 0 0 0
Wind_Speed
4 3 4 3 3 3 3 4 4 4 3 2 2 2 2 2 1 4 3 3 2 2 3 3 4 4 4 3 3 3 3 4 4 5 5 6 6 6
3 3 3 3 3 3 3 3 4 4 4 2 2 2 2 3 2 4 3 3 4 4 4 3 3 3 3 3 4 4 4 4 4 5 6 6 6 6
3 3 3 3 3 3 3 3 3 3 3 3 2 1 3 4 3 4 3 4 3 6 5 4 4 4 4 4 4 4 4 4 4 5 5 6 6 6
3 4 4 3 3 3 3 2 2 3 3 4 3 2 3 4 4 4 4 3 3 5 6 5 6 6 6 6 5 5 5 5 5 5 5 6 6 6
3 4 4 4 4 3 3 2 2 2 2 3 3 3 3 3 4 4 4 3 4 4 8 8 8 7 7 7 6 6 6 6 6 6 6 6 6 6
3 3 4 4 4 4 3 2 2 3 2 3 3 3 2 2 3 3 2 2 3 2 2 4 7 9 8 8 8 8 7 7 7 7 7 7 7 6
3 3 3 3 5 5 4 3 3 2 2 3 2 2 2 2 2 2 3 2 2 2 3 3 4 5 7 9 10 9 8 8 8 8 9 8 8 8
3 3 3 2 2 3 4 5 5 4 3 4 3 3 3 3 3 3 3 3 2 1 3 2 2 3 3 4 6 8 9 9 9 9 9 9 9 9
3 4 4 3 4 3 3 5 5 6 6 5 4 5 4 3 4 4 3 3 3 2 3 3 2 3 3 2 7 8 8 8 9 9 9 9 10 10
3 3 4 5 5 5 5 4 4 3 4 5 4 5 5 4 4 4 4 4 4 3 3 3 2 2 3 2 8 9 8 8 8 9 9 10 10 10
3 3 4 4 4 6 5 5 4 3 4 5 5 5 6 6 5 4 4 4 3 1 2 3 2 2 3 3 4 10 9 9 9 9 9 10 10 10
2 2 0 3 4 6 5 4 4 3 3 3 4 5 6 6 7 6 5 4 3 2 1 2 3 3 3 3 2 4 6 9 11 11 11 10 10 8
3 2 1 1 4 5 5 5 5 5 5 4 3 3 3 4 4 5 4 5 4 3 2 3 4 4 4 3 3 3 4 4 5 7 10 12 11 10
4 4 3 3 5 6 5 4 6 6 5 4 3 3 3 3 2 3 4 4 4 5 5 5 5 5 5 5 4 4 4 4 4 5 5 8 11 13
4 5 6 7 7 6 7 7 6 5 4 4 4 3 3 3 3 3 4 5 6 6 6 7 7 6 6 6 6 5 5 5 5 5 5 5 6 6
5 5 8 10 8 7 6 6 5 4 4 4 4 3 3 3 4 4 4 4 5 5 6 7 7 7 7 8 7 6 6 5 5 5 6 6 6 7
6 6 5 4 4 4 4 3 3 4 4 4 4 4 4 4 4 4 4 5 6 5 5 5 7 7 8 8 8 7 6 6 6 5 6 7 7 7
6 5 5 5 5 4 4 4 4 4 4 4 5 5 5 5 5 5 5 5 6 6 5 5 5 5 7 8 9 9 8 7 6 6 7 8 8 7
6 6 5 5 5 5 5 5 5 4 4 5 5 5 5 6 6 6 6 5 6 6 6 6 6 6 7 8 7 9 8 7 7 7 7 8 9 7
6 6 6 6 5 5 6 6 5 5 5 5 5 6 6 6 6 7 6 7 7 7 7 7 6 7 8 9 8 6 10 9 7 8 8 8 7 7
6 6 6 6 6 6 6 6 6 6 6 6 6 7 7 7 7 8 7 7 8 8 9 8 6 7 8 8 9 8 7 10 9 8 9 8 8 8
7 7 6 7 6 7 7 7 7 7 7 7 7 7 7 7 8 9 8 8 8 8 9 8 7 7 7 8 10 10 9 7 9 12 12 11 9 9
7 7 7 7 7 7 7 8 9 8 8 8 7 7 8 8 8 8 8 9 9 9 9 9 8 8 8 9 10 9 11 10 8 8 9 12 15 15
Wind_Direction
307 300 296 296 283 277 273 272 277 279 274 263 259 260 273 286 264 267 264 131 188 232 239 242 233 226 220 211 206 218 220 217 218 220 218 218 221 222
318 313 307 307 303 282 272 275 272 274 280 290 288 286 295 284 246 275 273 176 215 220 216 218 212 202 205 204 203 211 217 220 222 218 219 222 221 223
327 324 317 310 302 297 284 272 273 277 277 289 291 273 275 284 284 278 267 253 205 188 199 208 211 209 210 212 211 212 213 214 217 217 219 219 219 222
333 332 330 323 307 296 290 285 283 282 273 284 291 280 271 270 276 274 268 261 249 169 191 208 214 214 214 215 209 211 215 216 217 221 224 224 222 223
338 332 330 326 317 315 299 297 282 272 269 270 281 290 275 272 272 264 261 261 257 181 190 203 208 212 213 214 212 211 214 216 218 221 223 224 226 228
332 327 326 325 324 315 304 298 297 285 270 261 263 267 268 264 263 270 265 240 257 236 208 199 195 204 211 212 213 213 215 218 220 223 224 225 225 226
322 324 334 337 335 320 318 319 301 290 282 271 264 268 277 270 262 269 273 262 241 247 240 218 200 210 200 208 212 214 217 219 222 224 226 226 227 228
315 318 306 278 300 271 283 296 300 290 295 292 282 279 274 274 281 272 274 271 258 242 260 248 229 233 225 223 181 191 210 219 222 224 226 227 227 230
313 311 317 343 308 313 270 236 243 242 250 278 285 284 282 286 282 277 275 282 287 285 265 262 245 245 241 188 166 193 209 219 224 226 227 228 230 231
311 312 315 318 334 321 303 293 276 241 235 246 268 276 282 291 279 274 273 264 256 243 242 265 263 265 265 221 177 197 211 220 227 230 229 230 232 234
304 314 312 319 347 319 291 288 285 271 227 233 259 272 285 284 284 273 262 260 269 257 221 262 277 280 272 252 189 193 209 218 226 230 233 232 232 235
300 288 306 319 323 314 295 295 295 298 298 265 234 238 243 239 228 244 263 270 281 280 234 258 273 276 270 254 245 205 212 216 220 226 228 231 229 236
310 313 11 358 294 296 288 288 292 296 290 277 262 250 241 234 224 221 240 259 274 281 268 254 272 274 275 275 267 253 246 242 226 226 222 223 221 230
303 316 345 327 302 292 281 282 279 274 269 271 269 267 267 262 247 240 236 245 258 270 273 273 272 275 280 280 274 260 252 251 255 258 251 212 215 225
297 310 293 284 282 268 247 256 261 255 265 272 274 274 271 271 265 244 237 234 241 248 248 244 251 264 270 274 276 274 271 262 251 252 254 248 242 234
271 266 247 250 249 258 261 242 245 265 279 278 275 272 272 258 248 258 258 250 250 248 233 230 237 249 261 269 274 274 270 267 260 256 258 261 256 250
312 284 274 270 269 267 264 259 253 243 245 261 269 270 262 259 257 255 256 257 262 264 258 238 224 227 245 261 270 270 270 267 261 260 260 264 259 256
285 276 282 284 287 288 288 280 266 259 260 262 264 263 265 267 267 262 259 260 266 269 270 268 261 246 242 237 235 259 267 267 267 260 260 264 264 258
258 272 279 283 287 288 286 284 282 276 274 272 272 272 271 271 269 268 268 269 270 271 272 268 263 265 271 273 247 225 253 266 269 264 260 263 269 269
255 270 276 279 282 286 287 286 284 279 269 269 271 272 272 274 276 275 271 272 275 276 272 265 260 262 269 279 283 263 225 247 261 266 269 268 268 266
280 280 279 279 282 284 284 282 281 280 280 279 274 270 269 270 272 273 274 270 269 274 275 274 270 259 267 271 271 269 255 225 239 254 266 270 270 266
287 288 287 286 283 282 281 279 276 274 273 269 270 270 269 269 272 274 276 275 271 271 275 277 273 263 262 265 271 274 273 257 235 237 248 257 270 273
289 288 285 283 279 278 279 281 281 281 281 280 278 274 273 272 273 274 275 276 278 278 279 279 279 273 269 268 271 274 275 272 264 250 244 229 231 242